Theta_e
355 353 353 352 349 348 349 350 350 349 349 348 348 349 349 349 349 352 355 354 349 345 348 349 346 345 345 346 346 344 344 344 344 345 345 346 346 347 349 350 349 351 351 348 349 352 352 352 352 352 350 345 343 345 345 343 343 345 346 347 349 350 349
355 353 352 351 349 348 349 350 350 350 349 350 349 350 350 348 348 349 352 353 350 346 345 347 348 347 346 349 350 347 344 345 344 345 345 345 348 350 350 350 351 352 352 350 351 352 350 351 352 353 352 346 342 343 344 344 343 343 344 343 345 346 346
354 354 353 352 349 348 349 349 349 349 350 351 350 351 350 348 349 348 350 353 350 347 347 346 346 348 347 351 354 350 347 349 347 345 348 347 346 348 349 350 352 352 352 352 354 353 350 350 350 350 351 348 345 345 344 345 344 342 344 344 343 345 344
352 355 356 353 350 348 349 349 349 349 350 351 351 352 350 348 349 349 350 352 350 349 350 347 345 347 347 349 352 352 350 352 351 349 351 352 349 349 350 352 352 351 351 352 352 352 351 351 349 347 348 348 349 349 345 345 345 344 344 344 343 344 345
352 355 356 354 351 350 349 349 349 349 350 351 351 352 352 350 350 351 351 353 353 351 351 350 349 351 350 348 350 352 350 351 354 353 353 354 352 351 352 352 351 349 351 351 350 351 352 352 350 348 347 346 348 351 348 345 346 345 345 345 343 342 345
353 356 356 357 355 353 351 350 350 350 349 352 352 352 353 353 352 351 352 353 353 352 352 352 351 352 353 352 352 353 350 349 351 353 353 354 353 351 351 351 351 351 352 352 351 352 353 353 353 352 349 346 347 352 353 348 347 347 346 345 344 344 345
353 354 355 356 356 354 352 350 351 351 349 351 353 351 352 355 354 352 352 353 352 351 352 352 351 351 353 353 352 353 353 351 351 351 352 354 354 353 352 351 351 350 351 352 351 352 353 353 353 352 351 351 351 353 354 351 349 349 349 347 346 345 345
353 354 354 355 356 355 354 351 350 352 351 351 352 350 350 353 354 353 353 353 352 351 351 350 350 351 352 352 352 353 354 354 353 352 353 353 352 353 353 352 353 352 351 352 352 352 353 353 353 352 353 355 354 353 354 353 350 349 350 348 346 345 346
353 354 354 355 355 354 354 354 351 353 353 351 351 350 348 350 352 351 351 351 351 352 353 351 350 351 351 351 351 352 352 353 353 353 353 352 351 352 352 352 353 353 352 353 352 351 351 353 354 353 354 355 354 355 355 353 350 349 349 348 346 345 348
355 355 354 354 355 354 354 355 354 354 354 351 350 349 350 352 351 348 347 350 352 354 354 352 351 351 352 353 352 352 352 351 352 352 352 351 351 350 351 350 351 353 353 353 353 350 350 352 353 353 354 353 354 356 354 351 349 348 348 350 347 345 348
354 354 354 354 355 354 353 354 355 355 354 352 349 350 352 352 351 351 350 351 354 356 356 355 353 351 351 352 353 353 352 350 350 350 350 349 350 349 349 349 348 350 351 351 352 351 351 352 351 353 354 352 353 355 353 351 352 350 349 352 351 348 348
352 353 352 352 354 354 353 353 354 354 354 353 351 352 355 353 351 353 353 353 356 356 355 356 356 353 351 352 353 354 353 352 351 350 349 348 348 348 348 348 347 347 349 350 351 351 351 351 351 353 353 351 352 353 351 350 352 352 350 352 355 354 352
352 354 352 352 354 354 353 352 352 353 352 353 354 355 356 354 352 353 352 353 356 355 354 357 357 356 355 355 356 355 354 353 352 351 350 349 348 348 347 347 346 346 347 348 350 350 350 350 350 352 352 349 349 351 350 347 349 351 349 349 353 354 354
352 352 352 352 353 354 354 353 351 350 349 351 354 354 352 350 349 349 349 351 353 354 354 355 355 354 354 354 356 357 356 353 352 353 352 350 349 348 347 346 346 346 346 346 348 349 350 349 349 351 352 350 349 350 350 349 350 351 348 347 349 351 353
351 351 351 351 353 354 355 354 353 352 350 349 351 351 350 348 347 345 345 347 351 354 355 354 352 353 352 350 351 355 357 355 354 354 353 352 351 349 349 347 346 346 347 346 347 348 349 348 348 349 351 352 351 350 352 353 353 352 349 346 345 349 352
349 350 350 350 352 354 353 353 353 353 352 351 349 349 348 347 345 344 343 345 348 351 352 351 350 350 351 351 351 354 355 355 354 352 349 350 350 349 350 350 349 348 348 347 347 348 349 348 347 347 349 350 352 352 353 354 353 353 352 348 346 349 352
347 348 348 348 350 351 350 352 353 352 353 353 350 349 349 348 346 346 347 348 348 348 347 346 346 345 346 349 352 354 353 352 352 352 349 349 347 346 346 347 348 350 350 350 350 349 349 350 349 348 347 348 350 352 353 353 352 353 353 350 349 350 351
347 348 349 348 349 350 350 351 351 352 353 354 352 352 351 351 351 352 353 353 352 353 351 349 347 345 343 345 348 351 353 352 352 351 351 350 348 345 344 342 343 344 346 349 351 351 351 352 352 351 349 348 348 350 351 351 350 350 351 351 351 350 350
346 348 349 348 348 348 348 349 349 350 351 352 352 353 353 354 354 354 354 354 354 354 355 354 351 348 347 347 346 347 350 352 353 351 350 349 347 345 344 343 341 340 339 342 347 351 353 353 351 351 350 349 348 348 349 349 349 350 349 349 350 351 351
346 347 347 347 347 346 346 346 346 346 347 348 349 350 351 353 354 354 354 353 353 353 354 354 352 351 351 351 350 349 348 349 350 350 349 348 348 346 345 345 345 344 341 338 342 350 353 353 352 351 350 349 349 349 349 349 349 350 349 349 350 352 353
346 346 346 345 346 345 345 345 345 345 346 346 346 347 348 350 351 351 351 351 352 352 352 352 351 351 352 352 352 352 351 350 350 349 349 348 348 346 346 346 348 348 346 343 345 349 352 353 352 350 349 348 348 350 351 349 349 350 348 349 350 352 352
344 344 344 344 344 344 344 344 345 345 345 345 345 345 346 346 347 347 348 349 349 350 350 350 351 351 351 351 352 352 352 351 351 350 350 349 348 347 347 348 348 349 348 348 348 349 352 353 352 349 348 348 347 350 351 350 349 350 349 349 350 350 350
342 341 342 342 343 344 343 343 343 343 343 343 343 343 343 344 344 344 344 345 345 346 346 347 347 348 348 348 349 349 349 349 350 350 350 350 349 348 348 349 349 348 349 349 349 349 350 351 351 350 350 350 349 350 351 351 349 348 348 349 350 349 349
340 340 340 340 340 340 341 341 341 341 341 341 341 341 342 342 341 340 341 342 342 341 341 341 342 342 343 344 345 346 346 346 347 348 349 350 350 350 349 349 348 348 348 348 348 347 346 347 347 348 349 350 350 348 348 348 348 348 347 348 349 350 350
336 335 336 336 335 334 335 337 337 338 339 339 338 338 338 338 337 336 337 338 338 337 336 337 338 338 338 339 340 341 343 343 344 345 346 347 349 349 349 350 349 349 348 348 347 346 345 345 345 345 346 348 348 347 345 345 345 345 346 346 348 349 349
333 332 331 331 330 330 331 332 332 333 333 333 333 334 333 333 333 332 332 332 332 331 330 331 334 336 337 337 337 338 338 339 341 342 343 344 345 347 347 348 348 348 349 349 349 348 347 346 345 345 346 347 348 348 346 345 343 343 344 344 345 346 348
331 331 330 330 330 329 328 328 328 329 329 329 330 331 331 332 331 331 330 330 330 329 327 324 325 329 331 332 334 335 335 335 336 338 339 340 341 342 344 345 346 345 346 347 348 348 349 348 347 346 346 346 347 349 349 348 346 344 344 345 344 345 348
331 331 330 330 328 327 326 326 326 326 326 327 328 329 330 329 329 330 330 329 329 330 328 323 318 318 320 323 325 327 329 331 334 336 338 338 339 339 340 341 341 341 342 343 344 345 346 347 347 347 347 346 347 348 349 349 349 347 346 346 346 345 347
331 330 329 328 327 326 326 325 325 324 325 326 325 325 323 320 321 323 324 325 327 329 329 326 322 317 317 317 317 317 318 322 327 331 331 332 334 335 337 337 336 335 336 338 340 342 343 344 345 345 346 346 346 346 347 348 349 349 348 348 347 347 348
330 329 328 327 327 327 326 325 324 325 324 322 318 315 312 310 311 313 315 317 320 323 324 327 328 327 323 320 318 317 315 315 318 321 322 321 323 327 333 336 335 335 334 335 338 340 340 341 341 342 342 342 341 341 342 343 344 346 347 348 347 347 347
329 328 327 327 326 326 325 324 323 323 322 319 313 309 309 309 308 308 309 309 310 312 315 317 322 325 326 326 327 326 324 322 319 318 319 320 319 322 328 332 333 334 335 334 335 336 336 336 335 336 337 338 337 337 337 338 340 343 344 344 345 346 346
329 328 327 326 326 326 326 325 324 324 323 321 317 313 309 308 308 308 309 309 308 308 308 308 310 313 316 321 325 328 329 328 326 325 325 326 326 325 326 329 331 332 333 334 334 333 333 332 332 333 333 333 333 333 334 335 337 338 337 338 341 343 343
329 329 327 326 325 326 326 326 325 325 324 323 322 318 314 313 313 314 317 319 316 309 306 311 314 311 308 311 316 322 325 326 327 327 328 329 331 329 327 327 328 327 326 328 331 331 332 331 331 332 333 331 329 330 331 332 333 333 332 332 335 335 336
329 328 327 326 326 327 327 326 326 324 322 322 322 320 316 315 314 312 315 317 314 308 306 310 314 314 314 315 314 315 318 321 323 324 324 324 326 324 318 316 319 321 323 324 325 327 329 330 329 329 330 328 327 329 331 329 329 331 331 331 330 330 330
329 329 327 326 327 328 328 327 325 322 319 318 317 314 312 311 310 310 310 309 309 308 306 307 312 318 322 323 321 320 321 322 323 325 324 323 322 318 311 307 309 313 320 324 325 325 326 327 327 327 326 326 326 329 330 328 327 328 329 330 329 329 329
328 328 327 326 327 328 329 327 324 320 318 317 315 312 313 312 311 311 312 310 310 310 307 310 318 323 323 322 323 324 325 324 322 323 325 326 325 319 311 307 306 307 310 316 320 323 325 326 326 327 327 327 327 328 329 329 328 328 328 329 328 326 324
328 327 327 326 325 327 326 325 322 319 318 318 316 313 314 314 312 312 313 311 311 310 308 311 320 323 321 320 319 321 324 324 321 321 323 327 328 323 315 313 315 316 314 311 310 311 314 317 321 323 324 324 323 323 324 325 326 327 326 324 321 317 314
329 328 328 327 326 326 325 322 320 319 318 319 318 316 315 314 313 313 313 311 311 309 307 310 318 322 319 314 311 313 317 318 316 316 317 320 323 322 320 321 324 324 321 316 312 309 309 308 310 311 313 313 313 313 314 315 316 316 316 313 311 308 306
Wind_Speed
26 27 27 25 25 26 26 26 25 25 25 25 23 23 23 24 24 23 22 22 22 22 20 18 17 17 16 15 14 13 12 12 12 10 9 9 9 8 9 8 7 7 7 7 8 9 10 9 10 10 10 10 11 10 9 9 9 8 8 9 9 7 7
26 26 27 24 24 26 25 26 25 24 24 24 23 22 22 23 23 22 22 22 22 22 21 19 18 18 17 15 14 13 13 12 11 10 9 9 10 9 8 7 8 9 8 7 9 10 10 9 11 11 11 10 10 10 10 10 10 9 9 9 10 9 7
25 25 25 23 24 27 26 27 26 25 24 23 23 22 22 23 22 21 22 22 22 21 21 20 19 18 18 16 14 13 13 12 11 11 11 10 10 9 9 9 10 11 11 9 9 9 10 10 11 12 12 10 9 10 10 10 10 10 10 9 8 8 7
27 25 23 22 23 26 26 27 27 26 25 23 22 22 22 22 21 20 20 21 20 20 22 21 19 19 18 18 17 15 14 13 12 12 12 11 9 9 11 12 11 11 11 11 10 9 9 10 10 10 11 10 10 10 10 10 10 10 10 8 8 9 8
28 25 21 21 24 24 25 26 27 26 24 22 22 22 22 22 22 21 20 20 20 20 21 21 20 19 18 17 17 16 15 15 14 13 13 12 10 12 14 13 12 12 12 11 11 9 9 10 9 9 10 10 11 10 10 10 10 10 9 9 10 11 10
28 25 20 20 23 24 26 27 26 26 24 21 22 23 21 21 21 20 19 20 21 20 20 19 19 19 19 18 16 15 15 15 15 14 14 13 12 13 14 12 11 12 11 10 10 9 9 9 9 8 9 9 10 10 10 9 9 10 9 9 10 11 10
28 26 22 20 22 22 26 29 27 27 25 22 22 23 22 22 22 20 19 19 20 20 20 19 18 18 18 18 17 16 15 15 15 15 15 14 13 12 12 11 11 11 10 10 10 10 10 9 8 9 9 9 10 11 10 10 9 9 9 9 10 11 11
28 28 24 23 23 22 24 28 30 29 27 24 25 26 25 23 23 23 21 20 20 20 20 19 18 18 17 17 17 18 16 15 15 15 15 14 14 13 12 12 11 10 11 11 11 11 11 10 10 10 9 9 10 10 11 10 9 9 10 10 10 10 10
25 27 26 25 25 23 24 27 30 29 27 26 26 26 25 23 23 23 20 18 19 19 19 18 17 17 16 15 16 16 16 15 15 15 15 14 14 14 13 13 11 11 11 12 12 13 12 11 11 11 10 10 10 11 12 11 10 10 10 10 10 10 9
23 23 25 28 27 26 25 26 28 28 26 26 27 25 23 22 21 19 18 17 15 15 17 17 16 16 15 15 15 14 14 15 15 14 14 14 14 14 14 13 13 12 12 13 13 13 12 11 11 12 12 12 12 12 13 12 10 10 10 10 10 9 9
21 20 22 26 26 26 27 26 26 26 25 25 27 27 25 24 21 16 16 16 13 14 17 16 16 17 16 15 15 14 14 14 14 14 13 13 13 14 13 13 13 13 13 14 13 12 11 11 12 13 13 12 13 13 13 12 11 11 10 9 9 9 10
20 20 21 24 24 23 28 29 24 24 24 23 25 26 24 24 24 20 18 17 13 12 15 15 16 16 15 14 15 15 15 13 13 13 13 13 13 13 13 13 13 14 13 13 14 13 13 13 13 14 14 13 13 13 13 12 12 12 11 10 10 11 11
26 25 23 26 24 19 23 29 27 24 23 22 25 27 25 23 23 21 20 19 16 14 14 14 14 16 15 14 13 14 16 15 14 14 13 13 13 12 13 13 13 14 15 14 14 14 14 14 14 14 14 13 13 13 13 12 12 12 12 11 12 12 11
24 22 22 26 25 21 21 25 26 26 25 24 25 26 24 21 19 18 18 19 19 19 17 15 14 15 16 16 14 12 14 15 16 16 14 12 12 12 13 13 13 13 14 15 15 14 15 14 13 14 15 14 13 13 13 13 13 13 13 12 12 12 11
17 16 18 20 22 21 20 18 18 20 23 25 26 25 22 18 16 17 18 19 20 20 19 17 15 14 16 17 16 14 12 13 14 15 15 14 13 12 12 13 13 13 13 14 15 14 14 15 14 15 15 14 13 13 13 13 14 14 14 13 13 13 12
14 16 16 16 18 18 17 16 15 15 16 20 25 27 26 22 18 16 16 18 19 20 19 17 15 14 14 15 15 15 16 16 15 15 17 18 17 16 14 13 13 13 13 14 15 15 14 15 15 15 15 15 13 12 12 15 15 15 14 13 13 13 12
14 17 16 16 17 17 16 17 17 17 16 17 19 22 22 20 18 15 14 15 16 18 19 20 20 19 17 15 15 16 18 19 18 18 19 18 19 19 18 17 16 14 13 13 14 15 14 14 14 14 14 14 14 13 14 16 16 16 14 11 12 13 12
15 15 16 14 15 17 16 16 17 17 17 17 18 18 17 16 15 14 14 13 14 14 15 17 20 22 22 21 19 17 18 19 20 21 21 20 20 20 20 21 21 19 18 15 13 14 14 14 15 15 14 13 13 15 17 17 16 15 14 12 12 12 11
15 16 15 14 16 15 13 13 13 14 16 16 16 16 15 15 15 14 14 14 13 13 12 12 14 19 21 22 22 21 21 21 21 21 21 19 20 20 21 22 23 23 23 22 18 15 15 16 17 17 15 13 13 14 16 16 15 16 15 13 13 13 12
17 17 15 14 14 12 10 11 10 9 11 12 11 11 12 13 14 14 13 13 13 13 13 11 11 13 15 16 18 20 22 23 23 23 22 20 20 21 21 22 22 22 25 26 24 20 17 17 18 18 18 17 14 14 14 14 13 14 16 14 14 15 15
18 18 16 14 13 12 11 11 10 9 9 8 7 6 6 8 9 9 9 10 11 11 11 11 10 11 12 13 14 16 19 21 22 23 23 23 24 24 23 22 22 22 23 25 25 24 21 19 18 19 19 18 17 17 17 14 12 12 14 14 15 16 16
18 18 17 15 14 15 15 14 13 14 14 14 11 8 7 7 6 5 5 6 6 7 7 9 10 10 11 12 13 15 17 18 19 19 19 19 22 24 24 22 22 22 23 23 23 24 24 21 19 20 20 19 18 19 18 16 14 13 13 13 15 16 17
18 18 17 15 14 15 16 17 17 16 15 15 13 12 12 11 9 7 6 5 4 5 5 5 6 6 7 8 10 13 15 17 18 18 18 17 18 21 22 23 24 25 25 24 24 24 24 21 20 20 20 19 18 19 19 18 16 15 14 15 16 17 18
18 18 18 16 15 15 16 16 17 16 15 15 13 11 11 11 11 12 11 9 9 8 8 8 7 4 1 2 3 4 7 9 12 14 16 18 19 19 20 22 24 26 26 26 26 26 26 24 22 21 20 20 20 21 22 20 18 16 15 16 18 18 18
19 17 16 15 15 16 16 16 17 16 16 16 14 13 12 12 12 13 12 10 9 9 9 10 11 10 7 5 5 3 2 1 2 4 8 13 16 18 20 21 22 23 24 24 24 26 27 27 26 24 22 21 22 23 23 23 21 20 18 18 20 19 19
17 17 16 16 15 16 16 16 17 16 15 16 15 14 13 13 13 13 13 12 10 10 10 10 12 12 9 8 8 6 5 6 6 5 3 1 5 10 14 18 19 19 21 22 20 21 23 25 26 26 24 23 23 24 25 24 24 23 21 20 20 19 19
17 16 15 15 15 15 15 15 16 16 15 14 14 14 14 15 15 15 15 14 13 13 12 11 11 11 9 9 9 8 7 7 7 7 8 7 4 1 4 8 10 9 10 13 14 15 17 20 22 25 26 25 25 25 25 25 25 25 24 22 21 20 19
16 15 15 14 14 14 14 15 16 16 16 14 14 13 13 15 16 16 15 15 14 12 11 11 11 10 10 11 11 10 9 8 8 9 9 8 7 6 4 2 1 2 2 1 4 8 11 14 17 20 22 24 25 26 26 26 26 26 24 22 22 22 20
13 13 14 14 13 14 14 15 16 16 15 14 14 13 12 12 13 13 13 14 13 11 10 10 11 10 10 11 11 10 9 8 8 8 8 8 8 8 8 8 7 7 6 5 3 3 7 9 11 13 15 18 20 21 23 25 25 25 24 22 20 20 18
12 12 13 13 13 13 13 14 14 14 14 14 13 13 12 10 10 10 10 11 10 9 10 10 11 10 10 10 11 11 11 10 9 9 9 9 9 11 11 9 8 9 9 8 7 4 4 4 5 6 9 10 11 12 14 16 18 20 20 19 17 16 15
11 12 12 12 12 12 12 13 14 13 13 13 13 13 12 11 10 10 9 10 9 8 8 9 9 9 9 9 9 10 11 11 10 10 11 10 9 10 11 9 7 9 11 10 8 6 6 6 5 3 2 3 3 3 5 6 8 10 12 13 13 13 13
10 11 12 12 11 12 12 12 13 13 14 13 12 11 11 11 10 9 9 9 7 6 7 7 7 8 8 8 8 9 8 7 9 11 11 11 10 9 10 9 8 10 11 10 7 7 8 7 8 8 6 3 5 4 3 3 3 3 5 7 9 11 11
11 11 12 11 11 10 10 11 12 12 12 12 10 10 10 11 10 10 9 8 6 4 5 6 6 6 7 7 7 9 10 9 8 8 7 7 7 7 7 7 7 7 8 8 7 7 7 5 5 7 4 1 3 5 3 3 5 5 4 5 4 5 6
12 12 12 11 9 7 8 10 11 9 9 10 9 8 8 8 7 7 6 5 4 4 4 5 6 8 9 9 7 6 7 8 6 5 3 5 5 1 2 1 3 4 3 3 4 6 7 5 5 6 2 2 1 3 2 1 3 4 4 3 1 0 1
12 11 11 12 9 7 7 10 9 6 6 6 6 5 5 5 4 4 4 3 3 3 3 5 8 9 9 8 7 7 6 5 3 3 4 2 2 3 4 4 2 1 2 2 2 4 5 4 5 6 3 2 2 2 3 3 1 1 1 1 3 4 4
11 10 10 11 8 6 7 8 6 3 3 3 3 3 4 3 3 4 4 3 2 1 2 5 7 7 4 2 4 6 6 5 3 4 5 5 5 4 2 2 3 4 2 0 2 4 4 4 5 6 5 4 4 5 6 6 6 6 6 8 10 9 9
12 11 11 11 9 7 8 9 7 4 1 0 1 1 2 2 3 4 4 3 1 0 2 6 8 6 4 6 8 9 8 5 3 6 7 6 3 3 3 4 6 6 5 4 3 4 6 6 7 9 9 9 9 9 8 9 10 11 12 12 13 12 11
10 11 11 11 10 11 11 11 10 8 6 4 3 2 3 3 2 3 3 2 1 1 3 5 6 5 5 6 6 9 10 7 4 5 7 7 4 0 2 5 8 8 6 5 5 5 4 5 7 9 10 11 11 11 10 11 11 12 13 12 12 11 10
Wind_Direction
194 199 198 193 189 185 183 180 182 183 180 180 181 178 177 183 187 182 180 183 181 181 182 181 182 181 185 191 191 194 196 193 192 192 192 188 188 189 186 185 189 196 210 208 199 201 203 200 198 214 230 223 218 220 217 220 219 215 214 207 208 211 202
193 193 194 195 191 184 181 181 183 183 178 178 181 179 178 180 183 184 184 185 185 185 184 183 183 183 186 191 193 193 194 197 197 194 191 191 191 181 173 189 195 199 213 203 194 204 205 204 201 204 223 229 222 222 220 219 221 217 218 212 208 214 209
191 185 189 195 190 183 181 183 185 182 179 179 180 180 180 176 176 181 184 184 186 186 185 187 189 186 186 188 192 197 196 195 198 196 194 195 199 185 175 196 202 202 213 206 199 213 214 212 212 208 217 226 222 222 221 219 222 218 219 220 214 217 215
192 186 187 189 184 182 182 182 183 182 181 181 181 181 181 177 174 178 182 184 186 184 183 188 192 190 191 190 191 198 196 196 200 197 194 195 200 195 192 204 205 199 212 214 208 219 220 213 218 220 218 216 216 222 222 218 221 222 218 217 220 226 226
191 185 184 181 180 182 182 181 182 182 182 182 184 182 177 176 176 176 178 180 183 184 184 187 187 187 194 195 193 198 197 196 199 196 194 197 202 202 201 207 207 199 205 213 210 214 217 207 209 224 224 215 215 221 226 223 222 227 221 214 223 230 231
189 183 180 175 175 179 180 181 182 182 184 183 184 183 175 173 177 179 181 182 183 183 182 184 186 185 190 193 191 198 204 201 199 196 195 202 209 207 203 204 207 205 207 211 208 209 219 215 207 220 227 219 215 218 227 227 222 227 225 220 227 230 233
184 185 183 178 176 174 176 180 179 178 186 186 180 182 179 172 175 181 183 185 186 185 182 183 184 185 189 190 188 194 204 204 203 201 196 202 213 212 210 210 204 207 212 209 206 209 219 223 219 222 223 217 214 216 223 227 224 226 224 223 231 232 233
182 184 184 185 182 173 171 179 181 179 185 186 181 186 188 181 179 184 187 192 192 186 184 184 182 185 190 190 189 194 198 201 204 205 200 202 210 211 215 218 208 207 214 209 211 218 214 213 221 223 217 215 215 215 224 233 232 231 228 226 232 232 233
178 181 184 187 186 178 170 174 180 181 183 185 185 187 188 186 185 185 189 204 206 187 180 185 184 185 189 190 193 196 197 200 204 206 205 204 210 212 213 218 214 213 218 217 223 228 214 204 216 219 215 218 217 216 227 233 232 238 239 234 234 230 228
170 176 183 186 186 185 179 173 174 176 175 177 180 180 179 181 182 185 191 204 207 188 180 185 188 187 185 186 193 196 199 203 204 208 211 208 211 216 215 217 217 215 219 224 232 234 217 206 215 218 218 220 217 219 228 229 230 240 239 233 231 227 225
171 174 182 185 185 185 186 180 173 174 171 169 173 175 175 176 172 175 186 188 189 189 184 185 192 192 189 189 192 193 199 206 207 210 215 212 214 219 219 220 222 223 222 225 233 235 221 215 218 221 226 230 224 226 230 226 229 236 233 228 233 236 233
174 178 178 178 181 186 191 186 177 175 174 172 174 172 168 170 171 171 175 173 178 194 190 186 190 191 192 199 201 199 201 204 207 212 216 218 220 222 224 224 224 226 227 225 228 231 230 229 224 219 229 236 231 230 232 229 229 232 230 225 228 240 243
174 177 173 169 170 180 194 197 193 187 181 174 173 171 164 165 174 179 179 177 178 184 186 189 192 190 190 195 201 209 211 207 206 209 213 219 224 226 229 231 229 229 230 229 227 226 231 237 233 226 234 241 236 231 232 236 238 234 231 225 223 234 244
170 170 169 167 168 173 189 202 206 206 201 188 178 177 175 173 180 189 192 193 190 187 188 194 199 200 201 200 200 212 223 222 216 213 211 214 222 228 231 234 236 234 232 232 231 227 229 234 234 233 239 246 245 236 230 236 243 239 233 229 223 225 234
162 166 170 165 166 173 181 192 202 207 208 201 194 191 191 198 208 208 204 202 199 193 191 194 198 203 206 207 207 210 221 225 220 220 220 214 214 221 229 237 242 242 238 235 232 230 229 230 230 233 241 249 249 241 232 232 238 242 241 237 229 221 226
152 165 173 169 166 166 168 173 180 185 188 195 201 204 208 217 225 219 212 213 211 205 201 202 206 210 210 208 208 210 216 219 219 227 231 225 220 218 219 226 234 240 241 237 234 233 232 231 230 231 241 250 249 241 233 231 233 240 245 245 238 224 219
149 153 160 165 162 157 157 163 168 167 165 174 190 199 208 217 220 219 221 226 225 222 222 222 225 228 226 218 212 213 219 221 221 227 231 232 232 230 228 230 232 234 237 237 232 231 232 233 231 230 235 244 246 242 240 238 235 236 240 244 244 238 230
139 133 134 135 134 137 145 150 155 159 160 167 177 183 192 201 206 208 210 211 214 217 223 227 229 229 229 228 226 224 223 222 222 224 228 233 237 237 237 240 241 241 246 251 246 237 231 227 226 229 235 243 249 246 243 242 240 239 238 238 243 251 253
118 108 107 104 106 116 130 139 150 158 158 161 168 171 177 184 191 197 200 204 210 212 216 222 225 227 228 231 233 232 229 227 226 225 228 232 236 236 237 240 242 241 243 248 253 251 244 234 229 229 231 239 253 252 244 242 242 240 237 236 238 245 254
107 101 98 96 96 98 111 132 149 159 162 167 169 166 170 177 186 197 204 208 214 218 224 230 230 230 231 233 235 235 233 233 233 233 232 232 234 237 237 237 238 236 236 239 242 244 243 239 236 233 228 231 247 260 255 249 245 241 240 239 234 231 236
103 101 97 96 96 91 95 115 126 123 126 137 144 157 174 175 180 195 204 209 217 221 226 231 233 232 233 235 236 236 235 236 238 241 242 241 240 241 241 238 235 234 236 237 236 236 235 234 236 239 236 234 240 252 257 253 246 243 243 238 232 229 232
103 101 96 96 101 100 95 96 101 100 96 96 99 103 109 116 129 160 180 190 203 206 209 220 225 228 234 239 241 242 243 244 245 245 246 244 240 238 238 237 235 233 234 233 231 231 232 232 236 241 244 242 240 243 251 254 251 246 242 237 236 238 241
104 101 98 99 104 109 108 102 99 97 92 92 96 97 101 104 98 99 112 118 125 142 156 179 199 212 222 231 241 247 248 250 250 247 245 243 240 237 236 235 234 234 235 234 230 228 229 232 237 240 243 245 245 244 248 253 252 246 240 237 240 243 245
101 99 102 106 102 103 109 108 103 104 105 103 97 89 91 90 81 83 89 87 87 93 95 97 91 70 71 181 221 251 252 252 251 247 243 240 239 240 240 238 237 238 239 241 239 238 237 237 239 243 245 244 244 244 247 250 249 246 244 240 237 239 243
101 100 103 107 103 100 106 111 110 110 109 105 99 96 97 95 89 89 94 99 101 93 92 107 102 78 60 63 64 55 46 6 294 253 245 242 241 242 244 244 244 242 242 243 243 242 243 242 241 244 245 243 242 243 245 248 248 247 248 247 241 241 247
102 102 103 103 103 101 101 104 106 102 97 94 94 96 101 102 100 96 95 100 101 88 84 104 114 111 108 94 75 65 63 58 55 55 41 308 242 243 246 249 251 246 238 235 234 234 238 241 242 243 243 242 242 242 242 243 244 244 245 246 244 244 248
107 107 108 107 105 102 98 97 99 97 95 95 96 97 101 103 99 94 93 91 88 82 79 82 93 105 111 97 82 78 80 72 66 64 56 47 47 21 249 253 264 265 244 232 227 224 228 233 237 239 240 239 240 242 242 241 240 240 241 242 242 242 247
111 102 103 104 101 101 101 100 99 98 97 97 97 98 105 112 107 99 94 88 80 78 81 80 84 88 84 78 76 77 77 69 68 82 81 61 49 53 57 56 12 12 11 248 222 218 224 231 235 237 239 240 242 244 243 241 239 238 237 236 237 239 244
111 101 101 103 100 100 100 99 97 95 96 99 100 101 105 112 112 107 103 96 86 83 86 83 81 83 84 84 80 73 69 64 64 80 88 75 71 77 74 70 70 71 72 77 98 177 212 223 227 230 234 237 236 234 233 233 235 236 235 234 237 238 239
113 111 110 107 102 99 96 95 94 94 98 104 108 108 103 99 101 103 103 100 97 99 101 95 86 81 79 78 73 63 58 59 63 69 69 62 70 85 88 81 70 67 68 70 78 105 154 174 187 206 219 225 225 223 225 225 224 225 228 232 236 237 234
126 121 113 107 105 102 97 96 96 93 93 94 96 99 99 94 94 95 95 98 101 103 105 107 106 102 95 89 81 66 48 39 40 50 54 47 49 75 90 91 86 78 69 61 57 66 82 84 77 88 170 185 177 188 211 218 215 215 217 220 225 229 230
136 126 116 113 112 109 103 100 97 92 88 85 83 86 89 89 89 87 84 83 83 87 96 96 96 101 104 105 106 101 87 64 48 49 52 45 41 58 80 92 104 104 93 85 76 65 68 68 55 47 52 85 104 109 140 165 156 166 181 186 198 210 214
134 129 124 121 117 114 111 107 102 99 95 90 84 78 78 82 84 80 77 73 63 67 90 90 83 85 90 97 114 129 133 127 103 86 96 104 88 71 76 101 128 134 120 116 117 97 77 68 66 65 59 59 83 77 75 102 99 99 118 140 166 190 194
133 127 125 126 121 117 122 120 114 112 108 103 99 89 80 81 82 77 76 70 46 43 68 84 88 83 70 61 70 99 121 124 105 81 109 147 140 94 340 30 126 134 123 118 131 122 108 109 131 136 158 270 50 70 42 42 80 85 106 128 131 230 214
148 140 140 143 131 114 126 137 137 132 117 104 103 97 80 73 73 69 59 45 31 34 68 93 86 71 56 50 52 62 77 93 98 73 47 11 319 300 296 304 335 63 121 130 146 148 141 153 178 184 199 232 220 239 291 290 304 21 29 342 322 316 304
181 178 176 170 151 125 140 160 168 159 115 85 78 79 66 49 36 29 24 23 20 22 118 119 96 75 67 129 141 123 101 87 109 126 94 44 2 356 5 2 7 13 12 227 219 220 222 223 224 231 243 250 252 269 277 270 268 277 287 298 305 305 304
207 204 201 196 191 193 198 205 217 231 244 348 32 48 34 18 6 353 351 354 350 310 165 150 138 136 180 205 193 174 154 128 141 162 148 127 85 25 34 48 36 18 0 344 307 267 258 255 251 253 260 266 270 275 274 268 267 272 278 287 296 300 302
212 209 210 210 211 218 227 234 240 242 246 257 273 288 295 303 308 307 309 309 273 217 180 159 150 168 221 234 213 199 204 214 225 216 194 175 165 156 27 26 11 357 352 359 358 340 308 283 272 268 269 271 273 273 272 270 269 273 280 286 292 296 299